Theta_e
299 293 292 291 293 296 297 297 297 293 294 293 292 292 292 292 294 295 294 296 296 294 294 294 295 295 300 313 319 320 323 321 320 321 322 322 322 321 321 322 322 323 324 327 327 326 326 328 329 330 331 331 333 333 334 336 337 338 337 337 335 335 335 335 333 332 332 332 331 333 332 331 333 334 336 335 335 336 336 336 335 335 335 334 334 334
297 292 292 296 297 298 298 296 296 295 296 293 293 292 292 291 293 296 295 296 299 296 294 293 293 295 299 313 318 321 321 318 319 320 320 321 322 322 322 321 322 324 325 325 325 326 327 327 329 330 330 330 330 330 332 335 336 337 338 337 334 335 335 335 334 333 334 334 334 334 333 332 331 333 333 331 331 331 331 334 336 337 336 335 336 334
293 291 295 298 296 296 295 295 297 297 296 295 294 293 292 293 293 295 294 297 298 297 294 294 293 295 298 307 310 317 319 321 321 321 321 321 321 322 322 322 323 324 322 323 325 327 327 328 329 329 330 330 332 331 330 335 336 336 338 337 334 335 335 335 335 336 334 334 335 335 333 332 328 327 329 327 328 329 327 330 330 333 335 335 335 334
290 292 299 296 296 297 295 296 297 296 298 295 293 292 292 292 292 292 297 297 298 297 295 295 295 297 298 301 309 309 310 314 319 321 322 323 321 321 322 323 322 322 322 322 323 324 326 328 328 328 329 329 330 330 330 333 336 336 337 336 335 335 335 334 335 334 333 332 332 331 331 330 330 326 326 327 328 328 328 327 329 329 331 333 335 334
292 295 294 295 296 297 296 295 296 294 293 294 295 293 292 292 294 295 295 297 299 298 299 297 297 295 298 302 306 308 310 315 318 320 321 323 323 324 324 324 325 323 323 323 325 325 326 326 327 328 329 329 328 329 330 332 334 335 337 337 337 336 335 335 334 332 331 329 329 328 329 328 327 327 327 326 325 328 327 326 328 327 329 331 334 336
292 295 297 295 293 295 297 293 295 296 292 294 295 295 296 297 296 294 297 296 296 295 297 294 290 291 295 296 303 306 310 312 317 318 319 320 321 322 321 321 324 325 326 324 325 326 327 327 328 328 328 327 328 328 329 331 329 327 325 324 323 324 331 333 331 330 329 329 329 328 327 325 325 323 324 323 323 323 325 324 326 326 327 330 332 334
294 296 296 295 296 294 294 294 296 296 293 292 295 297 297 296 297 297 295 296 291 290 295 295 291 287 297 296 297 300 306 311 313 316 318 319 320 319 319 320 321 322 323 325 326 328 327 327 327 327 326 326 326 326 328 329 329 328 326 324 322 320 322 324 326 327 327 328 330 331 330 328 327 324 324 324 326 325 323 325 325 324 326 326 331 331
293 294 294 296 295 293 293 292 295 295 294 292 298 294 295 295 296 297 298 296 294 295 296 295 295 291 290 294 297 297 302 306 309 312 315 317 319 319 319 320 321 322 323 323 324 326 328 328 325 323 324 325 324 325 327 328 328 328 327 325 323 321 321 321 322 324 327 328 330 330 329 328 327 325 323 325 325 326 324 322 323 324 325 325 327 328
297 294 295 294 295 293 293 296 298 297 296 295 294 295 294 296 298 296 296 295 294 294 291 295 295 291 290 295 297 298 299 301 304 309 312 315 316 319 320 321 322 323 323 323 323 324 326 326 323 322 322 322 323 324 325 326 326 327 327 329 326 322 322 321 322 322 324 327 328 328 327 324 324 326 325 325 325 323 324 322 322 324 323 324 325 325
294 297 297 298 295 293 296 294 296 296 296 293 295 295 294 295 295 296 296 295 293 291 287 292 293 289 289 296 297 297 298 299 300 302 305 310 314 316 317 319 321 323 324 325 325 325 325 322 320 320 321 321 323 324 324 325 326 327 328 326 324 324 324 321 321 322 323 324 324 325 326 324 323 324 324 324 323 322 323 322 322 323 323 323 324 324
295 300 297 296 295 297 295 294 294 296 295 296 296 296 295 294 295 294 294 294 293 286 289 291 291 291 287 294 295 296 297 297 299 301 301 302 302 305 313 317 319 320 322 322 323 323 320 319 319 320 319 321 323 323 324 325 327 328 326 324 322 323 323 321 321 320 321 322 323 324 325 325 324 325 324 322 322 321 322 321 321 322 322 323 323 324
295 295 296 298 299 294 296 292 292 293 295 296 296 295 295 293 295 294 293 294 286 284 289 289 290 291 286 290 297 299 299 300 301 301 304 305 305 304 307 313 316 319 320 320 321 320 318 318 320 322 320 320 322 324 324 325 327 325 325 323 322 322 322 321 321 321 321 320 322 323 325 326 325 325 324 323 322 323 322 321 320 320 321 321 322 324
293 295 295 295 302 297 294 294 292 294 295 295 295 295 289 286 287 283 288 283 284 284 289 290 291 289 290 295 298 299 301 303 305 305 306 307 307 308 305 308 315 317 318 319 320 320 318 318 319 322 323 324 324 325 325 326 327 326 324 323 323 321 321 321 321 321 321 321 321 321 323 325 326 326 326 325 324 324 322 322 320 320 319 320 320 321
293 294 293 296 296 299 297 293 291 291 293 293 293 292 288 283 280 276 282 283 284 288 290 290 291 289 292 295 298 298 302 304 307 309 309 308 308 307 310 313 315 317 318 318 319 319 318 319 322 323 323 324 325 322 322 322 321 323 325 324 325 323 322 321 320 320 320 321 322 322 323 323 324 325 326 325 324 324 324 322 321 320 320 319 321 321
285 287 293 294 293 297 296 297 296 296 293 293 293 294 291 288 283 276 282 279 282 286 289 290 289 287 288 293 298 300 302 307 309 309 310 311 312 312 313 314 315 315 316 318 318 318 317 319 322 322 322 323 323 323 321 321 322 323 324 325 324 322 322 321 320 320 320 320 321 321 322 322 324 324 323 323 324 323 322 322 322 322 322 320 321 321
288 288 295 295 294 293 295 294 295 293 292 291 291 294 291 289 294 285 286 287 287 286 285 288 287 290 292 297 299 300 306 308 309 309 310 311 312 313 313 313 314 315 315 317 318 317 317 318 321 323 323 322 320 319 320 321 320 320 322 323 324 323 322 321 320 320 320 320 320 322 321 322 323 323 324 322 321 321 321 320 320 320 322 322 321 322
286 287 293 293 294 294 295 294 294 295 288 291 290 290 292 295 293 283 283 284 282 285 284 286 288 292 297 296 298 303 306 306 308 309 310 310 312 313 312 312 313 314 314 316 316 317 318 318 319 320 320 319 319 318 318 319 319 320 321 323 324 323 323 323 322 321 321 321 321 321 322 322 322 322 322 322 322 320 319 317 317 320 322 323 323 322
289 290 294 291 292 293 293 294 294 292 295 291 288 291 293 295 297 291 284 282 283 282 282 285 285 289 289 287 297 301 304 305 306 307 308 310 312 311 312 313 314 315 316 317 318 318 320 320 318 316 318 319 319 319 318 318 319 321 321 323 323 323 322 322 322 321 321 320 320 321 322 323 324 324 324 324 322 321 318 317 318 320 321 322 323 323
293 287 291 289 291 293 294 295 294 294 293 294 293 297 292 286 285 288 287 277 278 277 281 284 284 287 290 291 294 297 302 304 306 306 307 308 309 310 311 312 313 314 316 315 315 316 317 318 315 314 316 317 318 319 319 319 320 320 321 322 324 324 325 324 324 322 321 321 322 322 322 323 324 325 324 323 322 322 321 319 318 320 323 323 321 322
296 288 289 291 291 292 293 294 288 291 294 293 294 292 292 295 292 286 287 289 288 279 277 281 284 285 292 294 297 298 303 306 306 306 307 307 307 309 310 310 311 312 313 314 315 315 316 316 316 314 315 316 317 318 319 319 319 319 321 322 324 324 323 323 323 323 322 322 322 322 323 323 323 323 322 323 322 321 321 320 318 319 321 321 320 321
289 293 285 291 291 290 289 291 291 291 290 290 292 289 292 291 290 292 290 288 286 281 280 281 280 287 294 296 297 298 300 306 307 307 307 307 308 309 310 311 311 312 313 313 313 314 315 315 315 315 315 316 317 318 319 318 318 318 319 320 321 322 322 323 323 323 323 323 323 323 323 323 323 324 323 323 322 323 322 321 320 320 320 320 320 319
289 288 287 290 289 289 289 290 290 289 290 292 292 290 290 287 287 284 282 286 286 286 279 280 280 290 293 295 297 298 300 301 306 307 308 308 308 309 310 311 312 312 313 313 314 314 314 314 314 314 314 315 315 316 316 317 317 318 318 319 320 321 321 322 322 323 322 323 324 324 324 324 324 323 323 324 324 323 323 323 322 322 321 321 320 322
297 292 289 284 287 288 289 291 291 291 290 289 292 290 290 291 292 288 281 284 285 284 285 287 284 286 294 296 297 298 299 301 306 308 308 308 309 309 310 310 311 312 312 313 314 315 316 315 314 314 315 315 315 316 316 317 317 318 320 320 320 320 321 322 322 323 324 324 324 324 325 324 323 323 324 324 324 323 322 323 323 322 323 322 322 322
305 289 286 285 289 291 293 292 292 290 291 292 290 289 289 291 291 292 291 291 287 285 285 284 282 287 294 299 299 299 302 305 307 308 307 307 308 309 309 310 311 311 312 313 314 314 315 317 316 316 315 314 315 315 315 316 316 318 319 320 320 320 320 320 321 322 323 324 325 325 325 324 324 324 324 324 325 324 324 324 324 324 324 323 323 322
290 292 289 283 283 285 288 290 290 292 292 289 289 288 287 288 289 289 289 290 287 287 287 286 280 287 295 299 301 303 305 305 306 307 308 307 308 309 309 309 310 311 312 313 313 314 315 315 315 314 315 315 314 314 315 316 318 318 318 319 320 320 321 321 321 321 322 323 324 325 324 324 323 324 324 325 325 325 325 326 326 326 323 323 323 323
290 287 288 282 278 276 276 278 281 285 287 287 287 289 288 289 289 290 287 288 284 286 285 286 285 289 294 296 296 297 301 303 305 306 307 307 307 308 308 309 310 311 311 312 313 315 313 312 313 313 313 314 315 315 315 316 317 317 318 318 319 320 320 321 322 322 322 323 323 323 324 324 324 322 321 322 324 325 326 326 325 324 324 324 323 323
286 287 286 287 286 284 284 284 286 287 288 287 287 288 288 287 288 291 291 286 285 285 286 288 290 290 293 291 292 293 295 298 301 302 304 305 305 306 307 308 309 309 309 310 310 311 313 312 310 309 309 309 310 313 316 315 315 316 317 318 320 321 321 321 322 322 322 323 323 323 323 322 321 321 321 322 325 326 325 325 326 325 324 324 324 324
287 284 286 286 285 285 286 285 286 288 287 286 287 288 287 288 289 292 288 286 290 287 283 290 287 292 289 289 290 291 293 295 297 298 299 301 301 304 306 307 307 307 308 308 308 308 308 308 307 306 306 306 307 309 311 313 316 316 317 317 319 320 320 320 321 321 321 321 322 321 320 320 320 320 322 323 324 324 325 325 326 326 326 325 325 325
288 284 286 288 285 286 287 287 288 287 286 287 287 287 288 288 291 290 285 287 290 286 286 288 289 290 287 288 289 291 291 293 294 295 297 297 299 303 306 305 304 304 305 304 304 304 304 304 304 304 304 303 304 304 305 307 310 313 315 316 317 319 319 320 320 320 320 321 321 320 320 320 320 322 322 323 323 324 324 324 324 324 323 323 324 324
290 284 286 287 286 287 287 287 290 289 288 288 286 286 286 288 288 288 286 285 287 287 287 288 288 286 287 288 290 291 293 294 295 297 299 298 298 301 301 301 301 300 301 301 301 301 302 302 302 302 303 303 302 302 302 303 305 308 313 315 316 317 317 319 319 319 319 320 320 320 320 319 320 321 322 321 321 322 321 321 322 322 322 322 322 322
294 285 289 288 286 285 286 288 290 288 289 286 286 286 286 286 287 287 286 285 287 287 287 288 287 285 288 290 290 292 293 295 296 295 296 297 298 299 299 299 299 299 299 300 300 301 301 302 302 302 302 302 303 303 303 304 303 305 308 310 313 314 314 317 318 318 319 319 320 320 320 319 319 320 320 321 321 322 320 320 321 321 321 321 320 320
293 286 289 287 284 283 286 285 286 288 287 286 285 286 285 285 285 284 283 283 285 287 285 287 286 284 287 289 290 291 291 291 291 293 294 295 298 298 298 298 298 298 299 299 300 301 301 301 302 302 302 302 302 302 303 304 303 304 303 305 305 306 308 312 312 312 312 313 315 319 320 319 318 318 318 319 319 319 318 318 318 318 318 318 316 316
289 287 286 286 283 281 283 284 285 286 285 282 284 284 284 283 284 282 283 284 283 284 285 286 286 287 288 290 288 288 289 289 289 290 292 294 295 296 296 296 297 297 298 298 299 300 300 301 302 303 303 302 302 302 302 303 303 302 303 303 303 304 306 306 307 307 308 310 313 315 316 316 318 318 317 317 316 316 316 316 316 315 315 315 315 316
290 289 286 287 282 282 282 284 284 283 277 279 284 284 286 285 285 284 282 283 285 286 285 287 287 288 288 288 287 286 286 286 288 289 290 292 293 293 294 295 297 298 299 299 299 300 301 302 303 304 304 304 304 304 304 305 303 303 305 304 304 305 305 305 306 307 307 307 308 309 311 312 312 312 313 314 315 316 316 317 317 316 316 314 314 316
288 287 283 283 281 279 282 283 280 274 278 284 287 287 288 287 286 284 284 284 285 287 287 286 286 287 287 287 287 287 287 288 290 289 289 291 292 292 291 292 293 295 296 298 299 300 301 302 302 303 303 303 304 305 305 304 306 306 306 307 306 305 305 305 306 306 307 307 307 309 309 310 310 310 311 312 312 313 313 313 313 314 315 316 317 318
286 286 282 281 281 281 279 279 273 276 282 285 286 287 288 288 287 287 284 284 285 285 286 285 285 286 287 286 287 288 288 289 289 289 290 290 292 293 292 292 292 293 293 295 296 298 299 300 300 300 300 302 302 301 303 305 306 305 306 306 306 305 305 306 306 306 307 306 306 307 308 310 310 310 310 310 310 310 310 312 313 313 312 312 312 312
292 288 286 279 282 279 277 276 276 280 281 283 283 285 286 284 285 284 280 281 285 285 287 286 286 287 288 288 289 289 289 290 288 288 291 290 291 292 292 292 293 293 294 294 295 297 298 300 298 299 300 301 300 298 300 302 305 306 306 304 304 306 306 308 307 306 307 306 306 307 307 307 307 307 307 309 309 309 310 310 310 310 311 312 312 312
290 288 288 285 279 280 277 275 276 276 275 280 284 287 287 288 287 287 284 281 286 286 286 287 287 287 288 289 289 289 289 289 285 286 290 291 292 292 293 293 294 294 294 295 296 296 297 298 299 298 299 300 299 299 299 300 303 304 304 304 304 304 304 305 306 307 308 307 308 308 309 309 309 307 306 307 308 309 310 311 312 312 313 312 312 311
288 289 287 287 279 278 278 278 275 275 277 281 283 285 287 287 287 286 284 280 284 285 286 287 286 286 288 289 289 290 289 285 284 286 290 291 291 292 293 293 294 294 294 294 295 295 296 296 297 298 298 299 298 298 300 301 303 303 303 303 303 304 304 304 306 307 306 308 308 309 308 307 307 306 307 306 307 309 309 311 311 311 312 314 314 312
286 284 285 282 279 279 279 278 277 275 277 282 284 285 287 287 287 285 277 278 284 286 286 287 287 287 288 288 289 290 288 285 285 287 291 291 292 293 293 293 293 294 294 295 296 296 296 296 296 297 297 297 297 299 299 300 303 303 302 303 303 303 303 304 304 305 306 308 308 307 307 308 308 309 309 309 310 310 311 310 309 310 311 310 310 310
281 282 283 279 279 278 278 276 277 278 283 285 284 286 287 286 286 279 276 280 285 286 287 288 287 288 289 288 289 286 287 288 289 290 292 292 292 293 293 294 293 293 293 294 294 295 296 296 296 295 296 297 297 298 299 299 300 300 300 300 301 301 301 301 301 301 302 304 305 307 307 307 308 310 310 310 309 309 309 309 310 309 308 308 306 307
279 279 279 281 279 279 277 278 278 279 282 284 286 287 286 285 279 278 281 285 288 286 287 288 288 288 289 288 288 288 289 290 291 291 291 291 291 292 292 293 293 293 293 294 294 294 294 294 295 296 297 297 297 297 297 298 298 298 299 299 300 300 300 300 300 301 301 302 303 305 307 308 308 310 311 309 309 308 307 306 305 304 303 302 303 304
278 278 277 277 278 278 277 277 276 274 280 286 286 285 288 282 281 284 286 287 288 288 288 289 289 288 290 289 289 290 290 290 290 290 291 291 290 290 291 291 292 292 292 293 294 294 294 294 294 295 296 296 297 297 297 297 297 297 298 298 300 300 300 300 301 301 300 301 301 303 305 307 309 308 308 309 309 308 307 304 304 304 305 306 306 307
283 278 278 278 281 278 277 275 275 280 282 287 286 282 284 286 287 289 288 286 289 290 289 290 289 290 290 290 289 290 290 290 290 290 290 290 290 291 292 292 292 292 292 293 293 293 293 293 294 294 295 296 297 297 297 296 296 296 296 298 300 300 300 300 300 301 301 302 302 302 303 304 306 308 308 308 308 308 309 306 306 306 307 308 308 308
283 280 281 278 281 279 278 279 282 284 286 288 289 287 288 290 290 291 290 288 288 288 290 290 289 290 291 290 290 289 288 287 287 287 287 287 288 290 290 290 290 291 291 291 292 293 293 292 292 293 294 295 296 297 297 296 295 295 296 298 298 298 299 299 299 300 300 301 302 303 303 304 304 306 307 307 307 307 307 308 307 306 306 307 309 308
285 285 286 284 280 284 285 285 286 285 286 287 289 290 290 289 290 292 291 288 289 290 290 289 289 288 288 288 288 287 286 285 285 286 286 287 287 288 289 290 290 290 290 291 291 291 291 292 292 292 292 293 294 295 296 296 296 294 295 295 296 296 297 298 298 299 299 300 301 301 301 302 303 304 305 306 305 307 308 307 306 306 306 306 307 307
284 284 284 281 283 280 275 285 285 285 286 287 287 289 289 290 289 290 290 289 289 289 289 288 288 287 287 288 287 286 286 285 286 287 287 287 287 287 288 288 288 289 289 289 289 290 290 290 290 290 291 291 293 294 294 294 295 295 296 296 297 296 296 296 297 298 299 300 300 301 302 302 302 303 304 304 304 304 305 305 306 307 304 305 306 306
281 286 283 281 281 279 279 284 285 286 286 287 288 288 288 289 289 289 290 290 290 289 289 289 290 289 289 288 287 287 287 286 286 286 286 286 286 286 286 287 287 287 288 288 289 289 289 289 288 289 289 289 291 292 292 293 293 294 295 295 296 296 296 296 297 297 298 299 300 300 301 301 295 297 303 303 303 303 302 302 304 305 305 304 305 304
283 286 279 282 280 281 283 284 284 286 286 287 288 288 289 290 290 290 290 290 290 289 289 288 289 288 288 287 287 287 286 286 286 285 285 286 286 286 286 286 286 286 287 287 287 288 287 287 288 288 288 289 290 291 291 291 292 293 294 294 295 295 295 295 295 297 298 299 299 300 300 301 302 302 302 303 301 300 300 302 303 304 305 303 305 306
283 280 281 282 278 278 280 282 285 280 280 285 287 289 289 289 289 289 289 289 289 288 288 288 287 287 287 287 287 287 286 286 286 286 285 285 285 286 286 286 286 286 286 287 287 287 287 287 287 287 288 288 289 289 289 290 290 291 292 293 294 294 293 294 295 296 298 299 299 300 300 301 301 302 301 302 302 302 301 287 287 294 301 303 291 288
283 282 282 279 279 278 284 286 288 287 285 287 289 289 289 289 289 289 289 288 288 289 288 288 288 288 288 287 287 286 286 285 286 286 285 285 285 286 286 286 286 286 286 287 286 286 286 287 287 287 287 287 288 288 288 289 289 290 290 291 292 293 293 293 293 295 297 298 298 298 299 300 300 302 301 301 301 301 300 301 296 286 286 289 290 289
Wind_Speed
1 3 4 5 4 5 4 5 2 4 2 4 3 2 3 3 5 5 4 1 1 2 3 5 3 3 4 7 9 10 10 10 10 10 10 11 11 11 11 12 10 10 10 7 5 5 7 9 7 7 7 7 8 10 12 11 12 12 10 9 7 7 8 8 7 6 6 6 6 4 5 6 5 5 5 5 4 3 3 3 3 3 2 3 3 3
2 3 5 6 7 6 3 5 6 5 1 1 1 3 2 3 4 1 2 2 2 5 1 1 4 2 1 5 6 7 9 10 11 10 10 11 11 11 12 13 12 10 6 6 7 8 8 8 9 8 7 8 9 8 10 12 12 12 12 10 8 7 8 8 8 6 6 4 2 3 3 4 3 5 6 5 3 3 3 2 2 2 2 2 2 3
3 6 6 8 3 6 5 4 2 3 4 2 3 1 2 3 6 5 1 2 3 3 0 2 5 2 2 2 1 2 6 7 9 8 9 9 10 10 11 11 12 11 8 8 8 9 10 11 11 9 10 9 8 7 7 6 7 9 10 9 8 7 8 7 8 8 5 2 2 2 4 4 4 4 3 4 3 3 4 3 3 2 2 3 3 3
4 7 8 4 7 7 3 4 5 4 1 3 2 2 3 2 1 3 1 4 5 2 2 3 6 3 3 3 2 1 2 2 3 4 7 8 10 11 11 10 10 13 10 10 10 11 11 12 12 10 10 10 6 5 7 5 6 7 9 9 9 8 8 7 7 6 6 6 6 6 5 4 3 5 5 5 4 4 5 4 3 3 2 2 3 4
5 3 3 8 6 7 5 3 6 4 5 1 4 2 2 2 3 1 2 3 3 2 4 4 5 4 2 6 5 2 1 3 3 4 5 7 8 8 8 9 11 12 13 12 11 10 11 13 14 12 11 8 7 5 5 3 2 1 4 7 10 8 8 7 7 8 8 8 7 6 6 6 7 5 5 6 5 4 4 3 3 3 2 1 3 3
7 3 5 6 3 3 5 3 6 5 3 2 6 9 7 1 3 3 2 2 1 4 6 2 3 3 3 3 4 4 3 5 5 7 9 10 10 9 10 11 10 11 11 13 14 13 12 12 12 10 8 7 6 7 7 6 8 9 9 12 14 12 4 5 6 8 8 7 8 8 7 6 5 5 5 5 5 5 4 3 2 3 2 2 3 2
3 3 6 5 5 4 4 4 4 6 3 2 4 10 10 5 2 0 2 1 3 4 2 2 2 3 2 4 2 2 5 8 5 7 8 10 11 11 11 11 12 12 11 11 13 13 13 13 12 9 7 8 11 11 10 9 10 10 10 10 10 10 3 5 4 5 6 6 7 8 7 6 6 6 3 2 3 5 3 3 3 3 2 2 3 3
4 2 4 4 5 4 4 5 6 10 5 5 1 5 6 6 5 4 3 1 1 2 3 1 2 4 5 2 2 2 6 7 6 7 7 8 9 11 12 12 13 12 12 11 12 14 12 10 6 6 11 11 13 12 10 9 8 9 10 11 11 10 7 5 3 1 4 7 7 6 5 4 5 5 5 5 4 4 5 4 3 3 3 3 3 3
5 5 3 4 2 3 4 5 7 11 5 1 2 4 6 5 3 4 1 3 1 2 2 1 5 3 1 3 2 2 6 5 8 7 7 8 8 9 11 11 12 13 12 12 11 12 12 2 10 11 12 14 12 8 8 8 8 9 10 10 6 7 7 6 4 4 4 3 6 6 6 5 3 5 5 5 5 5 4 6 3 3 3 3 3 3
3 4 7 5 4 4 4 2 10 11 6 1 7 8 6 6 5 2 2 4 1 3 3 2 5 3 2 2 1 3 4 4 2 2 4 4 6 8 8 8 8 8 10 11 10 6 3 13 15 13 10 10 9 9 11 9 8 8 7 7 10 8 6 6 6 4 3 2 4 6 7 8 6 5 5 5 6 5 4 6 4 4 3 3 3 3
3 3 2 3 5 2 5 4 1 1 3 9 4 8 5 5 2 2 4 1 3 2 2 4 4 3 5 2 1 1 3 2 5 3 2 3 4 6 7 7 6 7 6 6 5 8 15 18 19 16 16 13 11 9 8 8 8 9 8 10 11 8 6 6 6 6 6 5 5 7 8 9 9 8 7 7 6 5 5 6 5 4 3 2 3 3
1 2 2 3 2 4 4 7 3 3 5 3 3 3 5 3 2 2 2 2 2 2 3 3 2 2 5 3 3 3 2 3 4 7 8 7 7 6 3 4 5 4 3 4 6 11 16 15 12 10 12 11 10 10 12 12 11 9 9 10 9 8 8 6 6 7 6 6 6 6 8 9 9 9 7 8 8 7 7 6 6 4 4 3 3 3
4 8 0 3 2 4 3 7 3 3 1 2 4 4 7 2 0 3 2 4 4 2 3 2 0 2 3 1 2 4 5 6 4 5 8 9 9 6 5 3 1 2 5 7 8 11 12 12 11 11 11 9 10 8 10 8 7 7 7 8 9 7 6 7 8 8 8 7 7 7 6 6 6 7 7 7 7 7 7 5 6 5 5 4 4 3
3 1 2 2 0 3 6 6 5 4 3 3 7 5 5 4 3 2 1 2 3 3 2 1 1 2 3 3 1 5 6 6 6 5 5 7 7 5 3 5 7 7 7 8 8 11 11 9 9 9 10 9 7 7 8 11 9 2 6 7 7 8 8 6 7 8 8 7 6 7 6 6 6 6 6 6 6 5 5 5 5 6 6 5 4 4
2 4 5 6 4 4 6 6 9 5 8 5 3 6 5 7 5 3 4 4 5 2 2 1 2 3 6 2 3 5 4 4 4 2 3 3 5 8 10 11 12 11 10 10 11 10 9 8 5 5 4 3 8 12 12 5 9 6 6 7 8 6 6 8 8 6 7 6 5 6 6 6 6 6 6 5 5 5 5 4 5 4 4 5 4 4
3 3 2 1 2 1 8 0 4 7 6 1 1 3 4 5 2 4 1 2 3 3 1 4 1 1 0 1 4 3 2 3 3 3 3 6 7 10 11 12 11 10 9 9 12 12 11 11 8 5 3 3 10 13 6 8 4 3 5 9 9 10 9 8 7 6 6 6 5 6 7 7 6 5 5 4 4 3 4 5 6 5 4 4 4 3
2 3 1 3 2 1 2 4 1 2 6 5 4 5 1 4 7 5 2 3 1 1 2 2 2 2 3 3 5 3 4 3 3 3 5 7 8 10 11 12 12 12 11 10 8 8 10 8 10 8 3 7 10 12 13 10 9 9 8 9 10 7 5 6 8 8 7 6 7 6 5 6 7 7 8 7 8 6 4 6 5 5 5 5 4 4
4 2 2 1 3 3 1 1 5 5 0 8 5 6 5 1 3 2 3 1 0 3 1 0 1 2 3 2 4 4 4 4 4 4 5 5 7 9 7 7 8 9 9 8 6 7 7 7 7 8 9 3 7 11 10 10 9 8 7 7 7 7 9 8 7 7 7 8 7 7 7 7 8 8 7 7 8 7 6 4 3 4 5 5 4 4
3 3 1 2 1 2 3 2 7 4 5 1 0 8 5 2 4 2 2 1 3 3 1 1 1 2 4 2 2 5 4 5 4 3 4 5 5 7 5 4 3 4 4 8 9 3 2 4 6 12 11 5 6 6 6 6 5 0 3 4 3 5 5 7 7 7 6 7 6 6 7 8 6 5 6 6 6 6 7 7 5 5 4 4 4 4
1 3 2 1 2 2 2 1 6 2 5 6 6 5 3 1 2 4 1 1 4 2 1 2 2 3 7 2 5 5 6 6 7 5 4 2 2 2 2 1 1 2 2 2 5 7 3 4 1 10 15 10 7 6 4 6 3 6 4 3 3 2 3 4 5 6 7 6 6 6 6 6 6 6 7 7 7 6 6 6 5 5 5 5 4 3
2 1 3 2 3 1 5 3 3 4 5 4 4 2 2 3 2 2 3 0 3 3 3 2 2 4 1 1 2 3 4 7 7 6 4 3 3 3 2 3 3 3 5 4 3 4 6 3 4 8 9 10 13 11 10 7 5 3 2 2 1 3 3 3 4 5 4 5 6 7 8 7 6 7 6 7 7 6 6 6 7 6 5 5 5 5
2 1 4 1 2 2 2 2 3 3 1 3 5 5 5 8 7 5 4 2 0 3 3 4 3 2 3 1 2 3 2 2 4 4 4 3 4 4 4 3 2 4 5 5 5 6 3 5 8 8 8 9 8 8 7 3 2 4 4 3 3 3 4 5 4 4 5 5 5 7 7 6 5 5 6 7 7 6 6 7 7 8 8 7 6 5
1 3 3 1 1 3 2 5 3 1 4 2 1 3 2 1 3 4 4 4 1 1 1 1 1 1 4 4 3 4 3 2 3 4 4 4 5 5 4 4 3 4 6 5 5 5 6 7 7 7 8 8 7 6 5 3 2 2 3 4 3 3 3 4 5 5 5 5 5 6 5 6 6 6 7 7 7 7 7 6 7 7 7 7 7 6
2 2 3 2 0 1 3 0 1 2 2 3 7 3 1 3 1 2 0 5 5 4 2 2 2 2 5 7 4 2 2 3 3 3 5 5 5 5 5 5 5 6 5 5 5 5 5 7 8 8 8 7 6 5 4 3 3 3 3 3 3 4 4 4 5 6 6 6 5 6 6 6 6 8 7 7 6 8 7 7 7 7 7 7 7 7
1 2 2 3 2 1 1 1 1 0 3 3 2 2 3 3 4 3 4 1 2 4 1 5 4 2 4 5 6 5 6 7 7 6 5 6 5 4 5 4 4 5 5 5 5 5 6 6 7 7 7 7 6 5 5 5 4 4 3 3 3 4 5 5 5 5 6 6 6 5 5 6 6 5 5 6 6 8 8 7 6 5 6 6 6 6
3 1 2 6 7 6 7 5 4 3 3 1 1 1 2 1 8 4 3 3 3 3 2 3 2 3 4 5 9 9 6 8 6 6 6 5 5 4 4 4 4 4 5 4 4 5 6 6 6 7 6 5 5 5 4 4 4 4 4 3 3 4 5 5 4 5 5 5 6 6 6 6 7 7 3 4 5 7 7 7 6 6 4 5 6 5
3 2 4 2 3 2 3 1 1 1 1 4 3 2 1 2 3 3 4 2 4 4 4 1 2 7 3 6 8 8 7 6 6 6 6 5 5 5 5 5 5 5 5 6 6 5 7 9 10 8 7 6 4 3 4 4 3 3 4 4 3 2 3 4 4 4 4 5 5 5 5 6 7 7 7 7 6 5 6 6 6 7 7 6 6 6
4 5 6 4 8 4 2 2 0 2 2 5 3 4 2 3 3 2 1 2 4 6 3 2 1 6 3 5 7 7 7 5 5 5 4 5 5 4 5 6 7 7 7 7 9 10 10 9 9 9 9 8 7 6 5 4 3 4 4 5 3 3 3 2 3 3 4 4 4 4 5 5 7 7 7 5 5 5 6 6 6 5 5 5 5 4
5 3 4 3 5 8 8 4 4 5 5 4 5 5 5 7 3 3 1 3 2 1 0 4 6 5 2 4 6 5 5 4 5 5 4 3 3 3 6 8 8 9 9 10 9 9 9 9 9 9 10 9 9 9 7 5 4 3 3 3 2 2 2 2 3 3 3 4 4 5 5 6 6 7 8 7 7 7 6 5 5 5 5 5 4 3
5 2 2 0 6 7 7 6 6 6 2 4 9 8 7 7 6 5 6 3 3 3 3 6 9 7 3 4 5 4 3 2 3 2 5 7 5 6 9 10 10 9 9 9 9 9 9 9 9 9 9 9 10 9 8 7 6 5 4 3 3 2 2 2 2 3 3 3 4 4 5 6 6 6 6 6 6 6 5 5 5 5 5 5 3 3
4 2 2 1 3 3 5 3 6 7 5 5 5 6 5 4 5 7 4 3 4 8 6 5 9 6 4 4 4 4 2 1 7 11 10 7 6 8 11 10 10 9 9 9 9 9 9 9 9 9 10 9 9 8 7 7 7 7 6 4 3 2 1 1 3 3 3 3 3 3 4 5 5 4 4 4 4 3 4 5 5 5 4 4 3 3
4 2 2 1 2 0 2 5 5 7 8 5 3 5 6 6 4 5 2 4 3 4 5 4 4 3 3 4 6 6 9 11 11 10 10 8 9 11 12 12 11 10 10 10 10 10 11 11 11 10 10 9 9 9 8 7 7 8 7 5 4 3 2 1 2 2 1 1 2 3 4 4 4 3 2 1 1 2 3 4 4 4 3 3 4 4
2 6 4 4 3 2 2 3 6 6 4 3 3 1 3 2 3 4 3 5 4 4 2 2 3 5 5 2 8 10 11 11 12 10 9 11 11 12 13 12 11 11 11 11 11 12 11 11 10 10 9 9 8 8 8 7 8 8 6 7 5 3 4 4 3 3 4 2 2 2 2 3 3 3 2 2 2 3 3 4 5 5 6 5 4 4
1 8 4 1 3 2 4 5 1 4 3 3 3 5 3 3 4 4 3 4 5 2 1 3 8 6 6 6 10 10 12 10 9 9 8 7 8 12 13 12 11 10 10 11 11 11 10 9 9 9 9 8 8 7 6 7 8 6 5 6 6 6 6 6 6 6 5 5 4 3 3 3 3 3 3 3 3 3 3 3 3 3 3 4 4 4
5 4 3 1 4 3 4 5 4 4 4 4 4 2 5 4 10 13 9 8 7 7 10 12 11 10 8 10 11 12 12 10 11 12 12 11 9 10 12 12 11 10 9 9 10 10 9 8 9 9 10 10 9 8 7 8 7 6 8 7 8 6 7 7 8 7 6 6 6 5 4 5 5 5 4 4 4 4 4 4 4 4 3 2 3 3
2 3 3 2 2 3 2 3 4 2 3 4 2 4 4 3 2 6 11 10 8 6 4 12 10 10 9 9 8 8 11 11 12 12 11 9 9 8 10 10 11 11 11 8 9 8 8 9 9 8 7 6 6 6 7 7 6 7 6 6 7 6 5 6 8 8 8 8 7 6 5 5 5 5 5 5 4 5 4 3 3 4 3 3 3 3
6 4 2 3 2 3 1 1 1 4 2 4 3 0 3 1 3 2 3 4 5 4 2 7 7 5 6 4 3 3 1 4 12 10 10 9 9 9 9 9 8 8 8 7 8 7 5 6 6 6 5 7 8 7 7 6 5 5 5 6 4 5 6 6 7 7 6 7 7 7 6 5 6 5 4 3 4 4 4 4 3 2 2 4 4 4
3 3 2 5 1 2 4 1 0 1 2 5 3 3 0 1 2 3 3 4 3 4 2 0 5 3 2 3 4 2 4 3 9 7 7 8 7 7 7 7 6 7 7 6 7 7 8 6 6 6 5 6 7 7 5 5 4 3 5 6 6 6 4 3 4 3 4 4 3 4 5 6 7 7 5 4 4 4 3 3 3 4 3 6 6 5
6 6 2 3 4 2 2 4 3 5 1 3 2 4 4 2 3 3 1 4 2 2 2 2 5 2 2 0 0 2 2 3 5 4 4 6 6 6 7 8 8 7 8 7 7 8 8 7 6 7 8 9 10 9 7 6 6 5 4 4 4 4 5 4 1 2 2 3 2 2 2 3 5 7 7 7 5 5 5 4 3 2 1 2 3 4
7 3 1 2 3 2 3 4 4 2 2 1 4 4 4 1 4 2 3 3 4 2 1 2 5 4 3 2 2 5 1 4 5 3 5 5 5 5 7 7 8 9 9 9 9 7 6 5 7 9 10 10 9 7 7 6 5 7 6 5 4 4 4 4 5 6 5 4 2 2 2 2 3 5 6 6 5 5 5 4 3 3 2 1 2 3
4 2 4 1 1 1 2 1 2 1 1 2 4 6 4 3 2 5 4 5 3 2 2 4 7 6 6 6 4 6 6 6 5 3 3 4 5 7 7 7 6 7 8 9 8 8 8 8 8 8 7 6 7 7 7 6 5 6 5 4 5 6 7 7 6 7 7 6 6 4 5 4 4 5 5 5 6 5 4 4 4 4 3 3 1 2
3 1 1 1 2 1 0 1 1 1 0 3 4 5 3 3 5 3 4 1 4 5 4 4 8 6 7 9 6 6 5 4 4 3 5 6 6 6 6 6 7 6 6 5 6 8 7 6 7 8 9 8 8 8 8 8 8 7 6 5 5 6 5 6 6 6 6 6 6 6 5 6 5 4 3 4 4 5 4 2 3 4 3 3 3 3
3 1 1 2 1 1 0 2 1 2 2 4 7 2 2 1 2 5 6 3 2 5 6 6 6 5 5 6 6 5 4 5 5 5 4 4 5 6 6 7 8 8 9 9 9 10 9 7 8 8 8 7 8 7 7 8 8 8 8 7 8 7 7 6 6 6 6 5 6 6 7 6 6 5 3 4 6 6 6 4 4 4 4 5 5 5
3 0 1 1 2 0 1 1 1 3 3 6 3 1 2 6 6 3 5 6 4 3 4 4 5 4 4 4 4 4 4 4 4 5 5 5 5 5 5 6 6 7 7 7 7 8 8 7 7 7 8 8 7 7 6 6 7 7 8 9 8 8 8 7 7 7 6 5 5 5 6 7 7 6 5 6 6 6 6 6 5 5 5 6 6 6
7 2 2 1 3 2 2 3 3 1 3 5 5 9 7 6 5 4 5 4 4 2 1 3 3 3 3 3 3 3 3 4 4 4 4 5 5 6 6 6 6 6 6 7 7 6 6 7 8 8 8 7 8 7 6 5 5 6 7 8 9 9 9 9 9 8 8 7 7 6 5 5 6 6 6 6 6 7 6 6 6 6 5 5 5 6
3 3 2 5 5 7 8 6 4 0 2 4 5 4 5 4 3 2 3 3 1 2 1 2 2 2 3 2 3 3 4 3 4 5 4 5 5 5 5 6 7 7 7 8 8 8 9 8 8 8 8 8 7 7 6 6 5 7 8 7 7 7 8 8 9 9 9 8 7 7 6 6 6 6 6 5 5 6 6 7 7 7 6 5 5 6
1 1 1 4 4 0 2 2 2 3 3 2 2 2 2 2 1 0 1 1 2 2 3 3 3 4 3 4 4 2 2 2 3 2 3 4 5 7 8 8 8 8 8 9 8 9 9 9 9 9 10 10 8 7 7 8 8 7 7 8 8 7 7 7 8 8 8 8 8 6 5 6 6 5 5 5 4 4 4 4 5 5 5 5 5 5
3 1 5 3 3 1 3 6 2 1 1 1 1 3 3 2 3 3 2 3 4 4 4 3 2 4 2 3 3 2 2 1 2 4 4 4 5 5 6 6 7 7 7 7 8 8 9 9 9 10 10 10 9 8 8 8 9 9 9 8 8 8 8 7 7 8 9 9 8 7 6 5 5 6 5 4 5 5 4 3 3 5 5 6 6 5
1 3 1 1 3 4 5 2 1 3 1 3 2 2 1 1 2 3 4 4 4 5 5 5 5 3 2 2 1 2 4 4 4 5 6 6 6 5 6 7 7 7 8 8 8 8 9 10 10 11 11 10 9 8 9 9 9 9 9 9 8 8 9 9 9 8 9 9 8 7 6 5 5 4 4 2 2 1 2 0 2 2 1 2 1 2
2 3 2 4 5 3 3 6 8 4 2 6 6 4 3 1 2 3 3 4 4 4 3 3 2 1 1 1 2 3 5 5 5 4 6 6 6 7 8 8 8 9 9 9 8 9 10 11 11 12 12 11 11 11 10 10 10 9 9 9 7 7 8 9 9 9 8 7 7 7 6 5 4 3 3 2 1 1 1 1 1 2 2 1 2 2
2 5 3 2 2 2 3 6 7 2 2 1 4 5 3 3 3 4 4 4 4 3 2 1 1 1 1 1 2 3 4 5 7 6 6 6 7 7 7 9 10 10 10 11 11 12 12 13 12 12 13 12 11 11 12 11 11 10 10 10 9 7 8 8 8 8 8 7 7 6 5 5 4 3 2 2 1 1 2 3 3 5 3 1 1 0
Wind_Direction
354 174 191 194 191 202 189 195 189 134 106 115 120 161 231 255 271 265 264 306 275 230 214 212 268 227 167 170 169 181 180 189 189 188 183 187 188 186 186 188 178 179 192 217 205 210 205 211 210 196 188 180 164 164 172 164 163 159 147 142 136 133 138 140 134 135 142 150 147 144 144 136 135 126 119 110 107 96 95 111 113 122 109 109 115 113
202 184 222 217 212 188 181 144 114 103 70 184 171 232 223 192 267 145 31 53 323 222 175 158 200 213 119 173 165 178 192 194 200 197 198 198 197 195 192 192 192 180 174 195 217 221 214 213 206 190 191 183 176 177 180 178 171 158 145 142 135 142 150 148 144 145 161 173 155 140 125 114 116 132 139 127 108 102 96 100 120 132 127 134 113 111
195 218 216 218 111 96 90 136 160 179 143 115 248 199 273 226 260 302 249 294 24 218 121 96 163 110 46 160 56 89 163 194 207 211 207 207 206 203 200 198 197 192 175 183 206 221 215 213 208 196 194 188 189 169 177 184 162 144 145 142 143 156 156 151 149 159 159 132 85 70 109 113 103 51 69 97 102 112 105 86 81 86 126 146 132 133
208 239 234 145 146 117 85 122 131 102 89 188 153 183 220 85 273 129 185 344 32 311 116 144 124 81 54 80 139 29 358 78 130 176 218 221 215 212 206 199 198 203 198 196 193 205 214 211 207 203 195 187 173 159 174 184 173 157 157 156 159 160 153 152 158 129 100 82 70 64 86 84 106 127 121 109 110 102 102 89 71 70 80 136 135 143
204 25 35 127 158 164 135 158 148 181 207 246 214 237 269 198 234 254 86 316 270 88 71 128 129 118 66 147 168 166 107 120 136 159 196 221 232 225 221 218 211 209 207 209 210 207 209 209 209 204 195 175 173 164 148 121 137 133 166 167 165 159 153 162 148 130 117 109 106 107 106 110 108 126 130 116 96 92 96 108 84 60 58 113 120 129
258 205 131 105 130 151 133 146 209 170 215 195 221 212 225 162 244 265 2 217 136 95 46 324 149 135 72 118 158 153 169 191 167 195 206 212 218 219 219 220 221 222 215 211 213 216 212 213 210 203 181 150 132 113 97 93 77 84 56 39 31 13 1 148 145 128 125 133 142 146 147 149 148 140 148 138 126 127 119 95 77 77 55 82 102 109
222 76 184 196 148 164 190 207 214 202 173 188 228 194 211 188 193 174 200 173 173 157 65 337 249 124 85 91 136 176 196 194 157 213 209 211 214 213 221 223 221 220 219 216 220 217 216 213 208 192 137 117 109 108 104 101 104 114 119 128 137 162 222 1 25 103 112 134 159 164 161 156 153 140 105 83 100 113 105 102 92 85 74 61 102 99
133 122 106 74 120 143 178 220 203 181 158 203 94 157 156 159 181 193 122 265 82 352 210 96 338 155 152 128 240 217 192 192 202 209 215 216 211 210 214 217 218 219 218 217 216 221 224 218 188 128 114 110 109 114 121 131 138 132 135 141 183 168 118 94 82 101 153 157 166 157 139 136 142 141 135 134 116 107 116 110 100 102 90 79 79 100
161 161 185 150 114 161 200 221 164 186 178 254 114 152 144 172 162 150 149 105 55 232 125 344 355 168 157 117 178 197 161 198 219 216 214 220 225 222 215 213 210 212 214 215 218 220 224 190 98 87 94 106 112 127 137 139 132 132 149 175 130 99 97 111 136 180 204 187 151 143 137 124 114 118 122 122 121 119 118 111 103 91 88 79 66 72
264 196 202 170 160 230 220 222 167 173 183 83 124 85 90 93 78 60 124 123 156 192 181 187 350 201 190 349 125 161 199 160 173 248 260 252 249 246 241 230 218 207 213 218 219 219 120 90 91 98 100 119 148 150 150 144 139 158 159 112 127 145 139 141 147 177 182 153 122 136 145 142 143 134 127 131 125 125 128 112 102 97 92 89 89 74
351 342 112 180 220 235 109 50 111 84 19 134 158 107 94 51 50 48 58 58 136 216 159 347 350 304 190 193 306 325 66 342 315 260 204 294 299 268 254 245 225 216 205 196 174 112 103 115 130 142 150 159 159 154 134 127 157 166 158 152 148 146 126 133 149 163 174 158 165 150 158 147 147 147 142 138 135 133 135 124 115 108 96 85 94 96
313 55 219 221 79 107 118 91 37 46 107 169 130 144 120 82 2 82 28 5 196 208 94 356 324 315 214 191 246 241 324 337 305 297 309 310 298 293 302 250 234 216 182 123 144 121 126 127 136 137 140 151 155 151 154 170 173 165 158 155 148 136 141 144 157 174 173 165 172 162 159 153 154 153 155 154 150 149 141 133 125 117 115 110 107 106
243 228 230 316 219 172 136 102 86 86 313 131 119 145 177 153 61 196 206 202 209 213 64 347 293 187 224 360 337 336 339 333 323 302 299 296 293 295 303 293 184 106 122 130 150 129 131 137 147 149 153 159 173 163 167 171 161 139 141 157 142 145 147 170 165 176 174 172 170 167 165 154 153 154 154 152 147 150 144 140 132 134 125 127 134 127
244 317 311 272 85 215 175 173 131 168 169 165 174 155 162 165 150 209 122 3 334 268 2 303 353 303 14 289 274 300 334 335 328 322 301 296 297 328 33 94 89 86 98 115 124 125 129 143 150 152 161 179 162 141 89 50 37 96 160 166 181 162 172 172 168 174 170 176 170 163 160 162 160 157 153 152 150 150 142 140 141 141 137 141 141 140
210 202 215 158 206 140 194 193 176 170 170 192 22 183 195 159 175 187 190 199 216 178 89 47 188 188 176 123 333 323 338 343 5 359 31 72 83 90 90 92 92 90 92 101 107 113 125 136 123 126 140 118 58 67 72 135 190 175 142 149 162 149 169 181 183 166 166 162 169 169 167 165 169 158 160 154 144 143 141 140 137 129 133 141 141 133
239 268 281 287 17 101 191 304 88 99 85 61 213 46 137 207 141 226 93 251 162 151 171 171 251 7 308 44 303 322 338 45 32 58 99 94 106 106 99 96 96 96 97 101 111 125 146 156 157 151 158 107 106 92 115 208 237 237 165 171 176 175 175 177 166 164 161 161 174 178 171 174 165 150 141 132 129 128 131 138 142 137 138 132 129 122
44 224 339 331 148 318 273 142 167 204 206 161 162 194 168 33 106 98 111 57 23 9 204 43 263 202 246 219 181 161 152 117 94 94 104 109 114 111 110 112 110 108 108 109 118 137 158 163 155 148 92 60 124 149 167 194 205 199 178 184 183 182 139 154 168 168 170 161 170 177 177 169 165 160 160 157 155 153 144 139 152 141 141 137 145 142
184 212 332 144 152 44 352 238 82 32 61 108 213 169 121 138 42 144 182 75 61 209 175 157 170 170 172 178 148 172 155 124 106 85 91 99 115 111 111 117 126 134 126 116 119 140 157 160 167 120 102 135 175 170 173 185 201 206 199 190 167 167 172 180 170 163 160 155 171 175 180 187 178 170 159 147 149 149 145 141 137 126 144 159 153 152
192 239 149 316 149 349 357 183 85 69 352 225 241 136 179 183 190 36 108 176 158 210 178 159 339 273 227 204 141 196 178 154 141 121 124 120 107 107 98 92 83 89 109 132 123 81 225 203 174 120 118 148 209 219 173 188 174 251 234 232 190 178 182 168 163 164 163 166 164 173 182 185 183 160 137 138 141 151 152 151 152 152 144 129 136 154
347 200 260 239 156 357 334 171 193 131 58 55 123 119 359 266 132 161 216 101 201 193 101 172 194 216 199 226 209 172 178 169 157 165 167 133 123 91 120 120 134 109 67 125 112 134 246 247 223 111 126 145 189 214 223 235 179 210 239 240 223 85 83 130 156 162 166 172 166 167 168 190 180 162 151 146 149 157 162 145 137 131 136 143 138 115
141 323 221 78 285 204 184 356 225 164 153 120 151 151 110 39 297 42 61 72 217 163 198 153 187 232 199 219 164 175 188 186 176 168 159 172 148 136 122 150 162 145 133 117 130 134 198 189 73 76 116 161 173 184 195 216 211 179 217 241 136 191 144 129 134 157 166 164 169 167 177 181 184 157 146 144 152 159 155 142 141 142 137 137 132 133
109 184 199 344 158 202 15 351 268 229 254 180 173 179 156 141 140 173 187 109 251 183 184 173 202 141 81 31 338 310 315 214 177 163 167 144 129 131 130 125 111 104 96 124 141 161 157 81 77 91 124 150 154 160 180 192 183 176 198 196 175 169 179 164 152 159 158 176 173 176 172 172 167 156 151 150 151 153 155 155 152 148 148 140 142 161
239 127 93 97 56 65 75 45 345 300 121 111 265 133 162 21 119 175 191 175 75 62 50 19 161 137 62 358 311 282 293 220 153 166 135 114 118 115 102 101 106 113 125 128 127 106 93 91 94 106 117 122 125 127 137 142 180 213 209 205 190 178 151 166 154 157 160 167 174 172 166 158 160 160 156 152 151 157 162 159 152 157 150 146 145 157
140 63 93 47 196 267 253 193 191 356 226 99 55 43 213 168 174 175 32 160 156 132 177 133 197 101 58 7 5 8 39 82 84 97 110 106 113 108 112 118 118 109 93 88 76 77 95 118 118 116 109 107 106 113 122 139 155 169 200 199 184 180 161 150 163 164 165 165 167 164 159 166 163 161 158 157 157 158 165 165 163 164 154 150 155 161
93 258 108 114 115 126 138 139 272 206 84 61 70 28 343 84 96 104 106 8 158 195 241 174 200 158 68 19 50 72 95 88 91 87 94 105 99 103 110 104 90 86 88 86 88 92 100 96 95 102 115 120 123 130 141 146 144 147 144 155 156 152 160 151 159 166 167 162 156 157 156 152 150 146 152 158 164 165 167 168 159 151 140 145 154 155
83 49 124 176 170 172 180 191 179 161 123 105 66 30 8 169 131 154 154 166 209 141 176 197 152 80 95 47 47 35 45 85 75 84 78 65 72 81 79 72 70 72 72 74 77 73 61 61 69 72 76 99 120 132 139 138 142 140 141 130 130 143 153 142 148 155 158 163 161 161 159 150 127 114 149 192 182 174 169 163 163 149 142 149 149 154
114 105 51 340 230 160 60 136 326 299 170 124 112 69 57 3 354 83 84 153 209 147 191 159 18 136 129 24 17 17 19 34 58 54 64 76 64 69 65 66 66 59 51 44 43 50 55 47 43 47 48 49 58 78 117 127 135 142 138 120 103 103 137 140 136 139 147 156 162 160 151 135 140 165 173 182 190 170 163 166 160 153 146 153 161 167
62 40 3 57 41 27 40 43 291 351 87 38 38 15 358 342 319 42 141 157 131 127 217 124 224 153 93 8 11 4 7 18 32 34 51 58 52 51 69 77 75 68 59 55 46 42 44 43 38 35 34 34 33 32 42 60 108 134 140 137 115 102 129 120 127 125 128 137 139 141 118 121 136 151 166 173 166 156 160 157 158 146 135 145 154 153
121 113 284 51 49 48 35 358 72 70 41 63 52 16 4 331 321 85 57 78 201 207 212 136 154 119 49 4 357 7 359 357 2 21 17 17 22 72 96 83 73 64 57 53 47 46 44 47 42 38 36 33 34 34 29 30 35 54 102 95 83 73 91 129 136 119 117 125 133 127 124 131 139 157 169 164 161 166 162 153 141 136 139 150 164 167
98 53 185 181 102 63 30 24 27 70 109 65 36 27 15 16 31 62 89 45 30 56 57 115 94 83 21 349 358 358 3 36 51 44 60 56 49 79 81 74 67 61 57 54 51 51 52 51 51 48 45 41 37 32 33 31 34 35 45 58 50 54 54 122 134 133 126 130 129 125 129 134 145 164 168 160 177 170 153 151 150 152 156 163 167 138
119 197 146 261 82 24 9 20 54 43 50 41 39 37 32 23 43 33 64 55 97 85 76 87 91 80 41 12 29 34 354 50 64 53 52 53 58 74 76 70 64 61 60 59 56 56 58 55 51 47 42 39 38 36 33 32 38 46 49 36 40 51 25 152 137 149 162 157 134 134 132 144 157 168 189 172 170 147 144 147 149 154 153 145 141 137
72 146 90 63 107 197 5 48 49 53 55 54 358 12 15 21 13 6 23 347 323 130 139 130 94 93 77 70 73 59 61 55 54 51 51 47 56 68 72 69 65 62 61 62 62 59 56 55 51 49 44 38 36 40 37 35 38 40 37 37 34 12 12 62 86 109 100 85 116 139 142 142 150 171 187 206 138 120 114 121 136 141 144 153 158 151
114 130 155 142 144 228 40 79 92 107 59 343 238 82 69 33 95 116 60 25 16 340 134 178 108 97 125 133 82 59 59 58 51 38 51 57 57 64 67 67 65 63 58 57 59 58 56 56 55 52 48 47 39 42 41 49 52 40 24 27 13 27 46 57 68 87 84 82 106 108 100 136 163 161 164 154 118 127 133 138 145 152 157 154 145 138
94 143 139 173 155 144 115 120 142 146 195 210 28 279 238 133 177 123 47 9 17 323 24 48 110 116 104 97 89 80 68 57 61 56 42 46 63 67 66 62 61 59 57 55 54 54 52 52 52 49 48 46 39 35 36 53 69 72 68 61 50 43 36 48 44 42 47 58 62 73 98 107 110 105 92 102 116 127 127 128 114 113 103 111 123 121
110 81 83 53 111 140 120 139 149 205 212 35 328 16 209 160 110 99 85 50 44 80 105 100 101 103 99 96 96 93 91 83 67 61 52 44 48 62 67 65 58 55 52 48 43 38 35 35 40 39 33 27 21 16 22 35 28 46 55 54 69 69 72 59 57 49 44 43 35 48 70 83 83 84 77 73 74 79 80 80 84 82 84 100 107 118
125 110 146 63 72 76 118 167 174 213 14 310 46 79 68 93 97 95 69 46 30 19 53 103 107 113 113 109 105 101 96 95 76 58 49 43 39 48 60 59 56 56 53 44 49 39 33 28 26 29 28 11 16 15 20 21 11 31 37 39 44 45 58 72 72 66 60 55 55 47 31 55 77 72 71 74 79 86 87 80 83 101 94 92 85 74
124 82 109 99 306 162 133 152 334 332 267 132 173 138 22 59 53 8 100 44 14 355 9 118 126 129 132 134 126 154 190 103 74 61 41 38 35 43 55 59 57 60 60 52 54 52 38 42 47 37 42 42 30 26 6 351 11 17 21 30 20 34 54 73 84 82 79 90 90 98 96 82 70 58 52 65 92 98 105 113 112 108 129 120 123 121
360 166 195 135 193 123 138 104 352 35 244 192 116 85 267 341 351 260 96 103 53 28 355 338 116 121 144 153 180 200 271 74 72 65 31 28 31 37 49 52 57 60 57 53 51 52 42 32 32 39 39 49 45 26 357 348 1 8 21 20 18 25 33 65 87 90 102 106 123 119 131 140 138 138 134 136 136 136 139 143 151 153 176 153 147 139
48 45 84 186 127 124 154 169 192 191 231 40 48 331 346 331 229 186 200 126 77 3 30 108 99 78 65 124 219 153 211 106 92 73 33 10 24 24 34 40 36 41 46 44 38 32 30 24 17 21 32 35 31 14 4 352 351 13 25 29 19 11 7 358 301 194 204 199 207 174 157 164 155 150 152 155 161 159 151 153 142 125 150 129 132 128
49 14 336 99 141 168 152 184 212 193 86 70 322 312 340 11 160 189 191 178 115 7 44 61 71 56 35 19 34 74 7 131 116 77 21 5 11 28 29 29 27 26 29 28 30 19 17 19 21 27 25 20 8 355 1 1 16 23 13 6 354 344 335 334 335 336 333 328 317 262 260 232 190 168 165 162 160 167 160 149 148 156 151 123 138 141
1 27 19 119 134 97 142 88 42 187 237 277 301 313 343 187 211 190 216 105 139 98 81 68 65 49 42 54 33 84 45 46 58 52 17 9 23 34 31 31 33 29 27 25 22 9 16 19 21 18 16 13 356 356 356 354 11 26 19 359 355 351 351 346 336 326 320 311 299 274 236 227 234 192 180 172 170 169 164 168 158 149 147 142 119 103
54 44 113 124 48 96 55 120 89 33 12 335 308 304 291 166 180 209 72 292 110 108 77 63 72 53 54 55 52 62 64 56 61 43 29 27 21 18 18 18 23 26 27 22 25 22 10 13 13 10 7 5 2 2 1 356 356 358 1 354 4 6 345 339 336 323 307 296 288 281 259 227 230 249 203 176 161 165 177 167 155 160 146 126 135 140
5 21 42 56 114 123 121 95 156 200 97 353 318 289 16 254 50 100 127 98 113 94 94 78 71 71 61 74 61 57 59 50 42 28 18 31 22 18 12 16 17 14 9 8 9 14 7 2 6 1 356 353 355 360 1 356 351 348 343 336 344 348 338 332 328 325 315 304 290 271 263 253 228 224 234 184 179 181 178 174 176 170 165 158 162 166
347 153 94 85 351 296 126 154 79 21 337 341 296 79 50 67 112 120 111 111 106 101 87 91 69 69 70 64 64 53 64 41 29 22 15 24 14 12 16 16 14 10 7 6 3 3 359 354 352 348 346 346 349 352 358 359 345 338 333 323 337 336 331 329 330 325 317 305 291 280 266 254 242 224 221 212 191 197 181 176 182 176 177 177 174 173
357 48 338 103 21 14 39 101 145 308 354 12 59 90 91 91 94 86 79 92 108 79 78 78 76 68 45 48 52 47 41 39 13 23 17 359 352 6 3 360 2 0 357 353 349 351 347 344 337 333 332 336 341 343 347 351 339 326 317 324 333 331 330 328 326 322 318 315 312 298 281 264 249 239 223 210 198 197 193 177 175 179 179 181 185 183
90 66 46 77 82 97 60 62 97 140 356 40 36 32 82 84 58 77 97 99 77 82 79 96 100 91 67 20 37 37 46 12 7 8 2 355 344 342 343 343 348 348 345 341 339 343 333 323 318 316 315 318 325 329 332 333 332 321 317 321 323 324 325 321 318 316 313 311 305 303 300 281 258 235 229 227 224 218 201 186 184 193 175 188 188 190
43 320 62 103 150 205 102 169 145 126 149 142 85 73 52 57 47 61 103 96 106 99 87 63 70 76 74 68 65 44 26 44 351 346 338 327 338 338 339 338 340 338 334 329 328 326 318 318 311 310 310 307 309 310 312 315 315 313 317 323 325 326 320 315 309 304 302 302 303 300 294 281 269 246 212 208 215 226 225 213 195 192 179 189 188 191
88 226 86 103 79 61 114 156 166 60 262 283 218 169 158 152 102 70 65 72 90 72 66 62 86 78 64 62 51 19 352 17 345 341 333 329 326 325 324 325 321 322 318 315 311 311 306 302 300 300 301 299 301 301 301 299 298 304 309 313 318 323 320 307 304 301 298 297 296 292 287 279 269 265 242 208 199 195 193 202 209 201 194 193 193 193
352 264 104 199 105 91 81 91 119 150 185 193 200 249 345 100 105 79 60 69 68 71 65 55 48 62 54 55 41 353 332 352 1 345 334 329 327 329 329 326 325 321 320 316 314 307 303 302 298 295 294 293 294 294 293 292 295 298 301 303 310 318 317 312 305 295 286 288 288 283 276 270 269 251 253 221 215 11 3 303 198 229 221 11 333 262
200 103 124 130 113 146 174 169 169 164 186 194 212 200 158 119 104 103 98 96 92 100 94 101 91 76 65 52 360 351 342 340 345 343 329 324 324 327 328 328 325 325 322 320 313 310 307 302 298 296 294 293 294 291 290 291 290 292 294 297 298 304 306 309 307 299 287 281 281 281 277 267 250 233 222 229 190 211 179 70 351 308 270 168 106 359
80 140 168 130 155 137 186 170 180 64 64 51 168 153 135 134 153 155 152 136 136 134 142 48 12 223 242 60 48 354 341 332 329 333 322 324 322 318 312 314 316 316 315 318 316 313 309 305 299 295 292 291 292 289 287 285 286 290 290 287 284 288 294 300 299 291 284 278 271 273 284 277 259 217 189 188 198 191 224 229 176 191 221 271 169 196